DRAUGEN current weather conditions

sailwx.info

Wind from 100 at 14 knots

Air temperature 14.0° C
Dewpoint 11.0° C

Last reported at 2014-Aug-02 07:20 UTC.
Time now 2014-Aug-02 08:44 UTC

Location: N 64°22' E 007°47'.
View on Google Maps.

See reports from other nearby stations

  
Tides and Currents Weather Stations Pressure Air Temp Water Temp Dewpoint Dewpoint Depression Visibility Wind Speed Wind Dir Waves Ship Positions
date/time (UTC)wind fromknots sea level pressurealtimeterstation pressurevisibilityair tempwater tempwave heightnotes
2014-Aug-02 07:20 100 14 14.0
2014-Aug-02 06:50 080 18 15.0
2014-Aug-02 06:10 070 19 15.0
2014-Aug-02 05:50 070 19 15.0
2014-Aug-02 05:20 070 17 15.0
2014-Aug-02 04:50 070 16 15.0
2014-Aug-02 04:20 070 11 14.0
2014-Aug-02 03:50 080 10 14.0
2014-Aug-02 03:20 090 8 14.0
2014-Aug-02 02:50 100 6 14.0
2014-Aug-02 02:20 130 6 13.0
2014-Aug-02 01:50 140 5 13.0
2014-Aug-02 01:20 160 7 13.0
2014-Aug-02 00:50 170 6 13.0
2014-Aug-02 00:20 170 7 13.0
2014-Aug-01 23:50 180 8 13.0
2014-Aug-01 23:20 190 8 13.0
2014-Aug-01 22:50 200 9 13.0
2014-Aug-01 22:20 200 10 13.0
2014-Aug-01 21:50 210 10 13.0
2014-Aug-01 21:20 220 10 13.0
2014-Aug-01 20:50 230 13 13.0
2014-Aug-01 20:20 230 14 14.0
2014-Aug-01 19:50 230 15 13.0
2014-Aug-01 19:20 230 14 14.0
2014-Aug-01 18:50 230 14 13.0
2014-Aug-01 18:20 240 12 13.0
2014-Aug-01 17:50 240 14 13.0
2014-Aug-01 17:20 240 16 13.0
2014-Aug-01 16:50 240 17 13.0
2014-Aug-01 16:20 240 16 13.0
2014-Aug-01 15:50 240 18 13.0
2014-Aug-01 15:10 240 20 5.413.0
2014-Aug-01 14:50 240 20 13.0
2014-Aug-01 14:20 240 23 13.0
2014-Aug-01 13:50 240 26 13.0
2014-Aug-01 13:20 240 25 14.0
2014-Aug-01 12:50 230 26 14.0
2014-Aug-01 12:20 230 27 14.0
2014-Aug-01 11:50 230 27 13.0
2014-Aug-01 11:20 230 27 13.0
2014-Aug-01 10:50 230 27 13.0
2014-Aug-01 10:20 230 25 13.0
2014-Aug-01 09:50 230 25 13.0
2014-Aug-01 09:20 230 27 13.0
2014-Aug-01 08:50 230 26 13.0
2014-Aug-01 08:20 240 26 13.0
2014-Aug-01 07:50 230 25 13.0
2014-Aug-01 07:20 230 27 13.0
2014-Aug-01 06:50 230 25 13.0
2014-Aug-01 06:10 230 25 5.413.0
2014-Aug-01 05:50 230 24 13.0
2014-Aug-01 05:20 230 22 13.0
2014-Aug-01 04:50 230 24 13.0
2014-Aug-01 04:20 230 23 13.0
2014-Aug-01 03:50 230 24 13.0
2014-Aug-01 03:20 240 27 12.0
2014-Aug-01 02:50 230 24 13.0
2014-Aug-01 02:20 230 23 13.0
2014-Aug-01 01:50 230 26 13.0
2014-Aug-01 01:20 230 24 14.0
2014-Aug-01 00:50 230 24 13.0
2014-Aug-01 00:20 230 23 14.0
2014-Jul-31 23:50 230 25 14.0
2014-Jul-31 23:20 230 26 13.0
2014-Jul-31 22:50 230 24 13.0
2014-Jul-31 22:20 230 26 13.0
2014-Jul-31 21:50 230 27 13.0
2014-Jul-31 21:20 230 27 14.0
2014-Jul-31 20:50 240 27 14.0
2014-Jul-31 20:20 230 31 13.0
2014-Jul-31 19:50 230 27 14.0
2014-Jul-31 19:20 230 27 14.0
2014-Jul-31 18:50 230 27 14.0
2014-Jul-31 18:20 230 26 14.0
2014-Jul-31 17:50 230 26 15.0
2014-Jul-31 17:20 230 29 15.0
2014-Jul-31 16:50 230 29 15.0
2014-Jul-31 16:20 230 30 14.0
2014-Jul-31 15:50 230 29 15.0
2014-Jul-31 15:10 230 30 5.415.0
2014-Jul-31 14:50 230 29 15.0
2014-Jul-31 14:20 230 30 15.0
2014-Jul-31 13:50 230 31 15.0
2014-Jul-31 13:20 230 30 15.0
2014-Jul-31 12:50 230 27 15.0
2014-Jul-31 12:10 230 29 5.415.0 Showers in the vicinity.
2014-Jul-31 11:50 230 27 15.0
2014-Jul-31 11:20 230 30 15.0
2014-Jul-31 10:50 230 29 15.0
2014-Jul-31 10:20 230 27 15.0
2014-Jul-31 09:50 220 27 15.0
2014-Jul-31 09:10 220 29 5.415.0
2014-Jul-31 08:50 220 27 15.0
2014-Jul-31 08:20 220 27 15.0